723  
ASUS46 KPDT 190225  
RWRPDT  
PENDLETON REGIONAL WEATHER ROUNDUP  
NATIONAL WEATHER SERVICE PENDLETON OREGON  
600 PM PST FRI JAN 18 2019  
 
NOTE: FAIR INDICATES FEW OR NO CLOUDS BELOW 12,000 FEET WITH NO  
SIGNIFICANT WEATHER AND/OR S TO VISIBILITY
.  
 
# INDICATES UNOFFICIAL STATION AND DATA  
 
WAZ520-190310-  
EAST SLOPES OF WASHINGTON CASCADES  
 
CITY SKY/WX TMP DP RH WIND PRES REMARKS
 
#BULLFROG N/A 34 34 100 E1 N/A  
#EASTON DOT N/A N/A N/A N/A N9 N/A  
#ELK HTS DOT N/A 33 33 100 E5 N/A  
#GLENWOOD N/A 33 32 96 CALM 30.12F  
#NELSON 3SW N/A 32 31 96 CALM 30.30F  
#TEANAWAY 4NE N/A 36 36 100 CALM N/A  
#TROUT LAKE 1NE N/A 32 31 96 CALM 30.12F  
#TROUT LAKE 1E N/A 32 31 96 CALM 30.07F  

 
 
WAZ521-190310-  
SIMCOE HIGHLANDS  
 
CITY SKY/WX TMP DP RH WIND PRES REMARKS
 
#BICKLETON HS N/A 32 32 100 SW5 29.69F  
#SATUS PASS DOT N/A 32 31 96 N2 N/A  
#CENTERVILLE 1SWN/A 35 32 89 CALM 30.08F  
#GOODNOE HILLS N/A 41 37 86 E6 29.98F  
#LYLE 6NE N/A 37 36 96 N2 30.10F  
#PITT 4SE N/A 34 33 96 CALM 30.13F  

 
 
WAZ026-190310-  
KITTITAS VALLEY  
 
CITY SKY/WX TMP DP RH WIND PRES REMARKS
 
ELLENSBURG AP RAIN 37 33 85 E7 30.08F FOG  
#ELLENSBURG CWU N/A 33 32 96 CALM 30.09S  
#ELLENSBURG 3NE N/A 33 32 96 CALM 28.17S  
#ELLENSBURG 1E N/A 32 31 96 CALM 30.19R  
#KITTITAS 3S N/A 33 32 96 E1 30.14S  
#MANASTASH RDG N/A 36 36 100 SE8 N/A  
#ROCKY CYN DOT N/A 34 33 96 E6 N/A  
#RYEGRASS DOT N/A 36 30 79 CALM N/A  

 
 
WAZ027-190310-  
YAKIMA VALLEY  
 
CITY SKY/WX TMP DP RH WIND PRES REMARKS
 
SUNNYSIDE AP LGT RAIN 43 38 82 W5 30.12R  
YAKIMA AIRPORT RAIN 36 34 92 SE5 30.12F FOG  
YAKIMA-VAGABOND RAIN 36 34 92 CALM 30.08F  
#DONALD 2NE N/A 40 30 67 S3 28.94F  
#GRANDVIEW N/A 45 35 68 CALM 30.14S  
#MABTON N/A 45 39 79 SW6 30.12R  
#NACHES 2SW N/A 36 34 92 CALM 30.11S  
#OUTLOOK DOT N/A 43 42 96 W3 30.08S  
#PARKER DOT N/A 41 39 93 CALM 30.12S  
#TERRACE HTS N/A 37 36 96 CALM 30.12F  
#TOPPENISH N/A 41 39 93 CALM 30.06F  
#I82 S UMTANUM RN/A 36 33 89 SW1 N/A  
#UNION GAP DOT N/A 36 36 100 CALM 30.16S  
#W YAKIMA N/A 37 35 92 CALM 30.16F  
#WHITE SWAN 5E N/A 41 39 93 CALM 30.14F  
#ZILLAH DOT N/A 42 39 89 W5 N/A  

 
 
WAZ028-190310-  
LOWER COLUMBIA BASIN...WASHINGTON  
 
CITY SKY/WX TMP DP RH WIND PRES REMARKS
 
PASCO CLOUDY 47 35 63 E6 30.11F  
RICHLAND AWOS LGT DRIZZLE 47 37 68 CALM 30.12F  
#BASIN CITY 5SW N/A 43 37 79 CALM 30.11F  
#BENTON CITY N/A 44 35 70 CALM 30.04S  
#CONNELL 5N N/A 42 35 76 NE2 30.14F  
#CONNELL 5NW N/A 42 35 76 S1 30.09F  
#ELTOPIA 6NW N/A 44 37 76 CALM 29.07F  
#KAHLOTUS N/A 44 33 65 S12 30.14F WCI 38  
#KENNEWICK 3S N/A 48 35 60 S1 30.13F  
#PROSSER DOT N/A 46 35 65 CALM 30.12S  
#SAGEMOOR 2W N/A 44 36 73 E1 29.98F  
#TOUCHET 2S N/A 48 36 63 S9 30.09F  

 
 
WAZ029-190310-  
FOOTHILLS OF THE BLUES...WASHINGTON  
 
CITY SKY/WX TMP DP RH WIND PRES REMARKS
 
WALLA WALLA AP MOCLDY 49 29 46 S9 30.10F  
#CLYDE 6NW N/A 44 33 65 E3 30.13F  
#DELANEY DOT N/A 41 31 67 SE1 30.15F  
#LOWDEN 2SE N/A 47 36 65 SE1 30.08F  
#PLEASANT VIEW 1N/A 42 33 70 CALM 30.19F  
#PRESCOTT N/A 44 36 73 CALM 30.13F  
#WHITMAN COLLEGEN/A 50 32 50 SE3 30.17F  
#WAITSBURG 6SSE N/A 45 27 49 SE5 29.95F  
#WALLA WALLA 5E N/A 50 30 46 SE18 N/A  
#WHITMAN MISSIONN/A 49 36 61 CALM 30.13F  

 
 
WAZ030-190310-  
BLUE MOUNTAINS...WASHINGTON  
 
CITY SKY/WX TMP DP RH WIND PRES REMARKS
 
#DIXIE 5SE N/A 42 26 53 E21G38 29.99F WCI 33  

 
 
ORZ009-041-WAZ024-190310-  
COLUMBIA RIVER GORGE  
 
CITY SKY/WX TMP DP RH WIND PRES REMARKS
 
HOOD RIVER AP LGT RAIN 39 37 92 NE5 30.08F  
THE DALLES AP LGT RAIN 38 38 100 SW3 30.10F FOG  
#ARLINGTON AIRPON/A 41 39 93 N2 30.09F  
#CELILO DOT N/A 41 38 89 S16G29 N/A WCI 33  
#LYLE N/A 41 40 96 SE1 30.11F  
#MARYHILL N/A 39 N/A N/A CALM N/A  
#MURDOCK N/A 40 39 96 E3 30.07F  
#RUFUS DOT N/A 41 40 96 S6 N/A  
 

 
 
ORZ510-190310-  
NORTH CENTRAL OREGON  
 
CITY SKY/WX TMP DP RH WIND PRES REMARKS
 
#ANTELOPE N/A 38 35 89 CALM 29.97F  
#COW CYN RST AREN/A 37 36 96 S1 N/A  
#DUFUR N/A 35 33 92 CALM 30.08F  
#DUFUR 9E N/A 36 34 92 E12 30.14F WCI 28  
#GRASS VALLEY 1SN/A 36 34 92 E3 30.18F  
#KENT DOT N/A 36 31 82 SE8 N/A  
#SHANIKO 5WSW N/A 36 34 92 SE16 N/A WCI 26  
#WAPANITIA AIRPON/A 34 33 96 CALM 30.11F  
#WASCO DOT N/A 40 40 100 NE10 N/A  
#WASCO 5NE N/A 38 37 96 NE1 30.10F  

 
 
ORZ511-190310-  
CENTRAL OREGON  
 
CITY SKY/WX TMP DP RH WIND PRES REMARKS
 
BEND AIRPORT LGT DRIZZLE 37 36 96 SE6 30.03F  
MADRAS AIRPORT RAIN 39 36 89 S20G31 30.01F WCI 29  
PRINEVILLE AP LGT MXD PCP 39 36 89 SE13 30.05F WCI 31  
REDMOND AIRPORT LGT RAIN 40 36 85 S10 30.04F  
#ASHWOOD SCHOOL N/A 41 36 82 SE7 29.97F  
#BEND-AWBREY N/A 36 35 96 SW10 30.08F  
#BEND-KIM LN N/A 37 35 92 S5 29.99F  
#CULVER N/A 40 35 82 SE12G24 29.70F WCI 33  
#CULVER 8W N/A 38 37 96 S1 30.00F  
#LAKE BILLY CHINN/A 39 N/A N/A SE5 30.10F  
#POWELL BUTTE N/A 38 33 82 SE3 29.96F  
#PRINEVILLE N/A 40 36 85 E5 30.21F  
#PRINEVILLE 3N N/A 39 35 85 E8 30.11F  
#WARM SPRINGS N/A 39 37 92 CALM 29.88F  
 

 
 
 
ORZ509-190310-  
EAST SLOPES OF OREGON CASCADES  
 
CITY SKY/WX TMP DP RH WIND PRES REMARKS
 
SISTERS AWOS N/A 34 30 85 CALM 29.96F  
#BLUE BOX PASS N/A 31 N/A N/A S2 N/A  
#CAMP SHERMAN N/A 32 29 89 CALM 30.14F  
#LA PINE 4NW N/A 32 29 89 CALM 30.37S  
#LAVA BUTTE DOT N/A 33 32 96 S1 N/A  
#SISTERS ODOT N/A 33 33 100 CALM N/A  
#SISTERS 3N N/A 34 31 89 CALM 29.99F  
#TUMALO 3W N/A 36 34 92 SE10 29.93F  
#WANOGA BUTTE D N/A 28 27 96 W14G24 N/A WCI 17  
 

 
 
ORZ044-190310-  
LOWER COLUMBIA BASIN...OREGON  
 
CITY SKY/WX TMP DP RH WIND PRES REMARKS
 
HERMISTON LGT RAIN 46 37 71 S8 30.11S  
#BOARDMAN SCHOOLN/A 43 39 86 W6 30.11S  
#BOARDMAN 8SW N/A 42 39 89 W1 30.13F  
#ECHO 8SW N/A 46 46 100 CALM 30.12S  
#I-84 EX 198 DOTN/A 50 26 39 NE13G28 N/A  
#IONE SCHOOL N/A 44 29 55 CALM 30.11F  

 
 
ORZ507-190310-  
NORTHERN FOOTHILLS OF THE BLUES  
 
CITY SKY/WX TMP DP RH WIND PRES REMARKS
 
PENDLETON AIRPT CLOUDY 46 30 53 S10 30.10S  
#ADAMS 3WNW N/A 45 35 68 S1 30.13F  
#ATHENA N/A 45 32 60 SW2 30.17F  
#CAYUSE N/A 47 32 56 SE25G33 30.11F WCI 39  
#HELIX 3N N/A 43 34 70 SE17G24 30.10F WCI 35  
#HOLDMAN 5SE N/A 42 36 79 CALM 30.09S  
#HOLDMAN 6E N/A 43 35 73 SE2 29.93F  
#M-FREEWATER 5SEN/A 49 31 50 E14 30.09F WCI 44  
#PENDLETON DNTN N/A 44 31 60 CALM 30.11S  
#PDT AQUATIC CTRN/A 45 30 55 W5 30.08S  
#PDT SUNRIDGE N/A 48 35 60 S13 30.12S WCI 43  
#PENDLETON 6SE N/A 47 32 56 SW10 30.09F  
#TUTUILLA N/A 44 31 60 S6 30.16S  
 

 
 
ORZ508-190310-  
SOUTHERN FOOTHILLS OF THE BLUES  
 
CITY SKY/WX TMP DP RH WIND PRES REMARKS
 
#AJAX N/A 38 29 70 CALM 30.20F  
#HEPPNER EOC N/A 42 35 76 E14G26 30.01F WCI 35  
#HEPPNER 4NE N/A 41 35 79 S12 30.10F WCI 34  
#LEXINGTON 2SE N/A 45 38 76 SE2 30.02F  
#OLEX 4N N/A 40 38 92 CALM 30.07F  
#RUGGS 5NE N/A 39 36 89 SE8 30.20S  
#RUGGS 2SW N/A 39 34 82 SE23G39 30.08F WCI 28  
 

 
 
ORZ502-503-190310-  
BLUE MOUNTAINS  
 
CITY SKY/WX TMP DP RH WIND PRES REMARKS
 
MEACHAM CLOUDY 36 28 72 MISG 30.09F  
#BATTLE MTN DOT N/A 33 29 85 S16G29 N/A WCI 23  
#GRANITE N/A 31 23 72 SW3 29.77F  
#HARDMAN 10S N/A 31 30 96 SE6 30.28F  
#LADD CYN SMT N/A 36 29 75 SE8 N/A  
#LADD CREEK ODOTN/A 38 28 67 S8 N/A  
#N POWDER DOT N/A 36 29 75 SE23 N/A WCI 24  
#SUMMERVILLE 5NWN/A 39 30 70 S12 26.79F WCI 32  
#TOLLGATE N/A 29 26 88 S6 30.09F  
#TROY SCHOOL N/A 36 33 89 CALM 30.07F  
#UKIAH N/A 35 32 89 SE1 30.11S  
#WESTON 4E N/A 39 27 62 E6 30.12F  

 
 
ORZ505-190310-  
JOHN DAY BASIN  
 
CITY SKY/WX TMP DP RH WIND PRES REMARKS
 
JOHN DAY LGT RAIN 40 33 76 E5 30.14F  
#DAYVILLE SCHOOLN/A 41 34 76 S1 30.09F  
#MITCHELL 8NW N/A 38 32 79 S7 30.12F  
#MONUMENT HS N/A 43 35 73 NW6 30.08F  

 
 
ORZ506-190310-  
OCHOCO AND JOHN DAY HIGHLANDS  
 
CITY SKY/WX TMP DP RH WIND PRES REMARKS
 
#HORSE RIDGE DO N/A 38 31 76 SE14G29 N/A WCI 30  
#IZEE 6NW N/A 34 32 92 S1 N/A  
#PAULINA ODOT N/A 33 32 96 NE6 N/A  
#PRAIRIE CITY N/A 37 28 70 NE2 30.29F  
#SENECA 9NW N/A 32 31 96 CALM 30.27F  

 
 
ORZ049-190310-  
GRANDE RONDE VALLEY  
 
CITY SKY/WX TMP DP RH WIND PRES REMARKS
 
LA GRANDE CLOUDY 42 27 55 SE21G37 30.15F WCI 33  
#COVE SCHOOL N/A 43 27 53 E6 30.14F  
#COVE 6NW N/A 42 30 62 S5 30.20F  
#ELGIN 3N N/A 39 24 54 SW3 30.14S  
#ELGIN 1E N/A 41 28 59 CALM N/A  
#ISLAND CITY 4N N/A 46 45 96 CALM 29.94F  
#LADD CYN DOT N/A 40 30 67 S16G28 N/A WCI 32  

 
 
ORZ050-190310-  
WALLOWA COUNTY  
 
CITY SKY/WX TMP DP RH WIND PRES REMARKS
 
#ENTERPRISE HS N/A 33 30 89 CALM 30.11F  
#IMNAHA SCHOOL N/A 45 31 58 N8 30.18F  
#IMNAHA 10S N/A 40 28 62 SW8 30.16S  
#JOSEPH N/A 31 24 75 CALM 30.29F  
#JOSEPH 3N N/A 30 27 88 CALM 30.14F  
#JOSEPH 3W N/A 30 25 81 CALM 29.92F  
#LOSTINE N/A 31 27 85 CALM 30.02F  
#LOSTINE 3SE N/A 30 26 85 CALM 30.19F  
#MT HOWARD 8000 N/A 20 9 62 S10 30.00F  
#PROMISE 1S N/A 29 25 85 CALM 30.32S  
 

 
 
CLICK HERE TO GO TO PREVIOUS BULLETINS.

The Nexlab OR Page
The Nexlab WA Page Main Text Page